Fairfield, CA

8:52 AM PDT on October 18, 2017 (GMT -0700)
Travis Air Force Base

Weather History for KSUU - October, 2012

Change the Weather History Date:

Thursday, October 25, 2012

  Actual Average Record
Temperature  
Mean Temperature 58 °F -  
Max Temperature 66 °F 71 °F 91 °F (2003)
Min Temperature 51 °F 48 °F 43 °F (2013)
Degree Days  
Heating Degree Days 6    
Growing Degree Days 8 (Base 50)    
Moisture  
Dew Point 49 °F    
Average Humidity 78    
Maximum Humidity 100    
Minimum Humidity 46    
Precipitation  
Precipitation 0.00 in - - ()
Sea Level Pressure  
Sea Level Pressure 30.23 in    
Wind  
Wind Speed 7 mph (North)    
Max Wind Speed 16 mph    
Max Gust Speed 22 mph    
Visibility 8 miles    
Events Rain    
Averages and records for this station are not official NWS values.
T = Trace of Precipitation, MM = Missing Value Source: NWS Daily Summary

Daily Weather History Graph

Daily Weather History Graph

Search for Another Location

Airport or City:

Trip Planner

Search our weather history database for the weather conditions in past years. The results will help you decide how hot, cold, wet, or windy it might be!

Date:

Astronomy

Oct. 25, 2012 Rise Set
Actual Time 7:27 AM PDT 6:15 PM PDT
Civil Twilight 7:00 AM PDT 6:42 PM PDT
Nautical Twilight 6:29 AM PDT 7:13 PM PDT
Astronomical Twilight 5:58 AM PDT 7:44 PM PDT
Moon 4:02 PM PDT (10/25) 3:32 AM PDT (10/25)
Length of Visible Light 11h 42m
Length of Day
10h 48m
Waxing Gibbous, 85% of the Moon is Illuminated
Oct 25
Waxing Gibbous
Oct 29
Full
Nov 6
Last Quarter
Nov 13
New
Nov 20
First Quarter

Hourly Weather History & Observations

Time (PDT) Temp. Dew Point Humidity Pressure Visibility Wind Dir Wind Speed Gust Speed Precip Events Conditions
12:01 AM 57.2 °F 50.0 °F 77% 30.20 in 10.0 mi West 5.8 mph - N/A   Overcast
12:08 AM 55.4 °F 48.2 °F 77% 30.20 in 10.0 mi WSW 4.6 mph - N/A Rain Light Rain
12:22 AM 57.2 °F 46.4 °F 67% 30.20 in 10.0 mi SW 4.6 mph - N/A   Overcast
12:23 AM 57.2 °F 46.4 °F 67% 30.20 in 10.0 mi SW 3.5 mph - N/A Rain Light Rain
12:38 AM 55.4 °F 51.8 °F 88% 30.20 in 10.0 mi SSW 5.8 mph - N/A   Mostly Cloudy
12:55 AM 55.2 °F 51.4 °F 87% 30.20 in 10.0 mi SW 5.8 mph - 0.00 in   Overcast
1:55 AM 55.6 °F 48.7 °F 78% 30.21 in 10.0 mi WNW 5.8 mph - N/A   Overcast
2:55 AM 55.2 °F 48.6 °F 78% 30.22 in 10.0 mi West 8.1 mph - N/A   Overcast
3:55 AM 53.1 °F 50.9 °F 92% 30.22 in 7.0 mi West 3.5 mph - N/A   Overcast
4:11 AM 53.6 °F 51.8 °F 94% 30.22 in 8.0 mi Calm Calm - N/A   Overcast
4:15 AM 53.6 °F 51.8 °F 94% 30.22 in 9.0 mi Calm Calm - N/A   Overcast
4:38 AM 51.8 °F 51.8 °F 100% 30.22 in 10.0 mi NNE 3.5 mph - N/A   Overcast
4:55 AM 52.5 °F 52.2 °F 99% 30.22 in 10.0 mi NNE 3.5 mph - N/A   Overcast
5:33 AM 51.8 °F 51.8 °F 100% 30.22 in 9.0 mi NE 4.6 mph - N/A   Light Drizzle
5:37 AM 51.8 °F 51.8 °F 100% 30.22 in 9.0 mi NE 3.5 mph - N/A Rain Light Rain
5:47 AM 51.8 °F 51.8 °F 100% 30.22 in 10.0 mi NE 4.6 mph - N/A   Overcast
5:55 AM 52.3 °F 52.2 °F 99% 30.22 in 10.0 mi NNE 4.6 mph - 0.00 in   Overcast
6:55 AM 52.5 °F 52.3 °F 99% 30.23 in 10.0 mi North 4.6 mph - N/A   Overcast
7:55 AM 52.9 °F 52.5 °F 99% 30.24 in 10.0 mi North 5.8 mph - N/A   Overcast
8:11 AM 53.6 °F 53.6 °F 100% 30.25 in 10.0 mi North 5.8 mph - N/A   Overcast
8:55 AM 54.1 °F 54.0 °F 99% 30.26 in 10.0 mi North 6.9 mph - N/A   Overcast
9:31 AM 55.4 °F 53.6 °F 94% 30.28 in 10.0 mi NNE 11.5 mph - N/A   Overcast
9:33 AM 55.4 °F 53.6 °F 94% 30.28 in 10.0 mi NNE 10.4 mph - N/A   Overcast
9:41 AM 53.6 °F 53.6 °F 100% 30.28 in 9.0 mi NNE 12.7 mph - N/A   Overcast
9:46 AM 53.6 °F 53.6 °F 100% 30.28 in 7.0 mi NNE 11.5 mph - N/A   Overcast
9:47 AM 53.6 °F 53.6 °F 100% 30.28 in 7.0 mi NNE 10.4 mph - N/A   Overcast
9:53 AM 55.4 °F 53.6 °F 94% 30.28 in 8.0 mi NNE 10.4 mph - N/A   Overcast
9:55 AM 55.0 °F 52.9 °F 92% 30.28 in 9.0 mi NNE 10.4 mph - N/A   Overcast
9:56 AM 55.4 °F 51.8 °F 88% 30.28 in 10.0 mi NE 11.5 mph - N/A   Overcast
10:11 AM 55.4 °F 50.0 °F 82% 30.28 in 10.0 mi NNE 12.7 mph - N/A   Overcast
10:18 AM 55.4 °F 50.0 °F 82% 30.27 in 10.0 mi NNE 13.8 mph - N/A   Mostly Cloudy
10:55 AM 58.5 °F 50.0 °F 73% 30.27 in 10.0 mi North 11.5 mph - N/A   Clear
11:55 AM 62.2 °F 48.4 °F 60% 30.27 in 10.0 mi North 10.4 mph - N/A   Clear
12:55 PM 64.6 °F 48.6 °F 56% 30.25 in 10.0 mi NNE 13.8 mph - N/A   Clear
1:55 PM 65.7 °F 47.1 °F 51% 30.23 in 10.0 mi North 15.0 mph - N/A   Clear
2:55 PM 66.0 °F 46.0 °F 48% 30.22 in 10.0 mi North 16.1 mph - N/A   Clear
3:55 PM 66.2 °F 45.7 °F 48% 30.22 in 10.0 mi North 13.8 mph 21.9 mph N/A   Clear
4:55 PM 65.5 °F 44.6 °F 47% 30.21 in 10.0 mi North 13.8 mph - N/A   Clear
5:55 PM 62.1 °F 44.4 °F 52% 30.21 in 10.0 mi North 10.4 mph - N/A   Clear
6:55 PM 57.7 °F 43.3 °F 59% 30.22 in 10.0 mi NNW 8.1 mph - N/A   Clear
7:55 PM 52.7 °F 42.1 °F 67% 30.22 in 10.0 mi NW 6.9 mph - N/A   Clear
8:33 PM 53.6 °F 42.8 °F 67% 30.22 in 2.5 mi NNW 10.4 mph - N/A   Haze
8:55 PM 54.3 °F 41.2 °F 61% 30.22 in 2.5 mi NNW 9.2 mph - N/A   Haze
9:08 PM 55.4 °F 41.0 °F 58% 30.22 in 3.0 mi NW 6.9 mph - N/A   Haze
9:12 PM 55.4 °F 41.0 °F 58% 30.22 in 2.5 mi NNW 8.1 mph - N/A   Haze
9:31 PM 55.4 °F 41.0 °F 58% 30.22 in 3.0 mi NNW 6.9 mph - N/A   Haze
9:55 PM 54.9 °F 39.6 °F 56% 30.22 in 3.0 mi NW 5.8 mph - N/A   Haze
10:55 PM 57.4 °F 36.9 °F 46% 30.22 in 2.5 mi Variable 6.9 mph - N/A   Haze
11:55 PM 56.1 °F 37.0 °F 49% 30.21 in 2.5 mi NNW 13.8 mph - N/A   Haze